Flag for Belarus Weather past 2 weeks in Gomel, Belarus

Now
37 °F

Clear.


Feels Like: 31 °F
Forecast: 46 / 58 °F
Wind: 8 mph from Southeast

Location: Gomel'

Current Time: Mar 27, 2015 at 7:06:03 AM

Latest Report: Mar 27, 2015 at 6:30 AM


Visibility: 10 mi

Pressure: 30.07 "Hg

Humidity: 87%

Dew point: 34 °F

Location of GomelLocation

Historic Weather in Gomel — Graph

°F

Gomel temperature yesterday

Maximum temperature yesterday: 61 °F (at 2:00 PM)
Minimum temperature yesterday: 37 °F (at 7:00 AM)
Average temperature yesterday: 50 °F

Past Weeks' High & Low Weather Summary

 TemperatureHumidityPressure
High63 °F (Mar 25, 4:00 PM)93% (Mar 12, 5:00 AM)30.92 "Hg (Mar 12, 5:00 AM)
Low19 °F (Mar 23, 6:00 AM)19% (Mar 24, 3:00 PM)29.80 "Hg (Mar 21, 6:00 PM)
Average41 °F58%30.25 "Hg
* Reported Mar 12 5:00 AM — Mar 27 5:00 AM, Gomel, Weather by CustomWeather, © 2015

Note: Actual official high and low records may vary slightly from our data, if they occured in-between our weather recording intervals... More about our weather records

Advertising

Gomel weather history for previous 24 hours

 ConditionsComfort  
Time TempWeatherWind HumidityBarometerVisibility
5:00 AM
Fri, Mar 27
37 °FClear.10 mph87%30.07 "Hg10 mi
4:00 AM39 °FClear.10 mph81%30.07 "Hg10 mi
3:00 AM39 °FClear.10 mph81%30.07 "Hg10 mi
2:00 AM43 °FClear.8 mph71%30.09 "Hg10 mi
1:00 AM45 °FClear.8 mph71%30.09 "Hg10 mi
12:00 AM45 °FClear.6 mph71%30.09 "Hg10 mi
11:00 PM
Thu, Mar 26
46 °FClear.8 mph62%30.07 "Hg10 mi
10:00 PM48 °FClear.8 mph58%30.07 "Hg10 mi
9:00 PM50 °FClear.10 mph58%30.07 "Hg10 mi
8:00 PM52 °FSunny.10 mph54%30.07 "Hg10 mi
7:30 PM55 °FClear.10 mph51%30.07 "Hg6 mi
7:00 PM55 °FClear.10 mph51%30.07 "Hg5 mi
6:30 PM57 °FClear.13 mph48%30.07 "Hg6 mi
6:00 PM57 °FClear.10 mph48%30.07 "Hg6 mi
5:30 PM59 °FSunny.13 mph42%30.07 "Hg10 mi
5:00 PM59 °FSunny.13 mph42%30.09 "Hg10 mi
4:30 PM61 °FSunny.13 mph39%30.09 "Hg10 mi
4:00 PM61 °FSunny.13 mph39%30.09 "Hg10 mi
3:30 PM61 °FSunny.10 mph39%30.09 "Hg10 mi
3:00 PM61 °FSunny.10 mph39%30.09 "Hg10 mi
2:30 PM61 °FSunny.10 mph42%30.09 "Hg10 mi
2:00 PM61 °FSunny.13 mph42%30.09 "Hg10 mi
1:30 PM59 °FClear.13 mph45%30.09 "Hg6 mi
1:00 PM59 °FClear.10 mph45%30.09 "Hg6 mi
12:30 PM55 °FClear.10 mph55%30.12 "Hg6 mi
12:00 PM55 °FClear.10 mph55%30.12 "Hg6 mi
11:30 AM50 °FClear.8 mph62%30.12 "Hg5 mi
11:00 AM50 °FClear.3 mph62%30.12 "Hg4 mi
10:30 AM45 °FHaze.3 mph71%30.12 "Hg3 mi
10:00 AM45 °FHaze.3 mph71%30.12 "Hg3 mi
9:30 AM41 °FFog.3 mph81%30.12 "Hg3 mi
9:00 AM41 °FFog.6 mph81%30.12 "Hg3 mi
8:30 AM37 °FFog.6 mph87%30.09 "Hg2 mi
8:00 AM37 °FFog.6 mph87%30.09 "Hg2 mi
7:30 AM37 °FFog.3 mph93%30.09 "Hg2 mi
7:00 AM37 °FFog.3 mph93%30.09 "Hg2 mi
Weather by CustomWeather, © 2015

See weather overviewHow to use our weather pages